Regional Weather Roundup
Issued by NWS Charleston, SC

Current Version | Previous Version | Graphics & Text | Print | Product List | Glossary On
Versions: 1 2 3 4 5 6 7 8 9 10 11 12 13 14 15 16 17 18 19 20 21 22 23 24 25 26 27 28 29 30 31 32 33 34 35 36 37 38 39 40 41 42 43 44 45 46 47 48 49 50
000
ASUS42 KCHS 241927
RWRCHS

REGIONAL WEATHER ROUNDUP
NATIONAL WEATHER SERVICE CHARLESTON SC
300 PM EDT SAT JUN 24 2017

NOTE: "FAIR" INDICATES FEW OR NO CLOUDS BELOW 12,000 FEET WITH NO
SIGNIFICANT WEATHER AND/OR OBSTRUCTIONS TO VISIBILITY.

NOT ALL STATIONS ARE QUALITY CONTROLLED. USE DATA WITH CAUTION...
ESPECIALLY DEWPOINT OBSERVATIONS.

SCZ027-030-031-034>040-042>050-242000-
...SOUTHEAST SOUTH CAROLINA...

CITY           SKY/WX    TMP DP  RH WIND       PRES   REMARKS
N CHARLESTON   MOSUNNY   92  68  45 SW12      29.99F HX  96
WATERFRONT PRK   N/A     87  77  72 SW10      29.99F HX  99
JOHNS ISLAND   CLOUDY    90  79  70 S14G20    30.00F HX 105
PINOPOLIS        N/A     88  75  66 SW6       29.92F HX  97
MONCKS CORNER  FAIR      90  70  51 SW8       29.97F HX  95
SUMMERVILLE    FAIR      90  72  55 SW5       29.98F HX  96
BEAUFORT MCAS  MOSUNNY   94  73  50 S9        30.00F HX 103
BEAUFORT ARPT  FAIR      90  77  66 S13       29.99F HX 102
HILTON HEAD IS MOSUNNY   91  77  62 SE16      30.02  HX 105
WALTERBORO     PTCLDY    91  72  52 S13       29.98F HX  98
ALLENDALE      FAIR      91  73  55 SW8       29.97F HX 100

...SOUTHERN MIDLANDS AND PEE DEE...

CITY           SKY/WX    TMP DP  RH WIND       PRES   REMARKS
GEORGETOWN     FAIR      90  70  51 S12G18    29.98F HX  95
KINGSTREE      FAIR      90  72  55 S9        29.95F HX  96
ORANGEBURG     LGT RAIN  91  73  55 SW15      29.96F HX  99
BARNWELL       CLOUDY    93  75  55 SW9G17    29.97F HX 104
AIKEN          HVY RAIN  73  72  94 W6G29     30.03R VSB 1/2
MANNING        FAIR      90  77  66 SW16G28   29.95F HX 102
COLUMBIA       TSTM      79  75  87 W13       29.98R FOG
SUMTER         MOSUNNY   91  74  57 S10       29.93F HX 100
FLORENCE       MOSUNNY   91  74  57 SW15G26   29.94F HX 100
MYRTLE BEACH   NOT AVBL
N MYRTLE BEACH MOSUNNY   85  78  80 S18       29.96F HX  96

$$

GAZ063-065-086>088-099>101-113>116-118-119-134>141-150-242000-
...SOUTHEAST GEORGIA...

CITY           SKY/WX    TMP DP  RH WIND       PRES   REMARKS
SAVANNAH ARPT  PTSUNNY   93  69  45 W9        30.01F HX  98
HUNTER AAF     MOSUNNY   94  72  47 W5        29.98F HX 102
FORT STEWART   MOSUNNY   92  70  48 SW12G18   29.99F HX  98
STATESBORO     MOSUNNY   92  71  49 SW13      30.01S HX  99
SYLVANIA       PTCLDY    91  75  58 W3        30.01S HX 101
CLAXTON        FAIR      90  70  51 SW8       30.00F HX  95

...CSRA...CENTRAL AND FAR SOUTHEAST GEORGIA...

CITY           SKY/WX    TMP DP  RH WIND       PRES   REMARKS
THOMSON        TSTM      74  73  96 CALM      30.05F
AUGUSTA-BUSH   HVY RAIN  81  73  76 NW21G36   29.99R
AUGUSTA-DANIEL TSTM      76  72  87 NW13      30.02R FOG
SWAINSBORO     FAIR      91  72  52 SW9G18    30.01S HX  98
VIDALIA        MOSUNNY   91  72  52 SW9       30.01F HX  98
EASTMAN        FAIR      92  59  33 SW9       30.04S HX  91
HAZLEHURST       N/A     92  71  50 SW6G17    30.01F HX  98
ALMA           MOSUNNY   92  70  48 SW9       30.02F HX  97
WAYCROSS       MOSUNNY   94  76  56 W9        30.02F HX 107
JESUP          FAIR      93  66  40 W7        30.01F HX  96
BAXLEY         FAIR      91  73  55 W12       30.01F HX 100
BRUNSWICK      PTSUNNY   93  75  55 SW9       30.03F HX 104
SAINT SIMONS   SUNNY     90  77  65 SE13      30.02F HX 103

$$

SCZ027-028-034-036>038-045-046-048>050-GAZ119-141-242000-
...LAKE AND SUPPLEMENTAL COASTAL OBSERVATIONS...

STATION/POSITION TIME  TEMP    WIND        PRES    WAVE   SWELL
                       AIR SEA DIR/SP/G            HT/PER HT/PER/DIR
                 (UTC) (F)     (DEG/KT/KT) (MB)    (FT/S) (FT/S/D)
WINYAH BAY       1830   90     230/ 10     1015.0S
LAKE MURRAY      1830   86     270/  9/ 16 1013.2F
ACE BASIN NERRS  1845   91     220/  3     1016.0F
FORT PULASKI     1900   87 84  170/  9/ 13 1016.4
SAPELO ISLAND    1900   91     240/ 12     1016.0

$$

ANZ835-935-AMZ111-154-330-350-352-354-370-450-454-472-242000-
...C-MAN AND BUOY OBSERVATIONS...

STATION/POSITION TIME  TEMP    WIND        PRES    WAVE   SWELL
                       AIR SEA DIR/SP/G            HT/PER HT/PER/DIR
                 (UTC) (F)     (DEG/KT/KT) (MB)    (FT/S) (FT/S/D)
BUOY 41004       1900   81 81  210/ 14/ 17 1016.5
BUOY 41008       1850   81 83  170/ 14/ 16 1016.7F   3/ 9   2/110/ 9
FOLLY BEACH CMAN 1900   84     200/ 15/ 17 1016.8F
CAPERS NEARSHORE 1908   87 83  210/ 16/ 21 1015.7F
FRIPP NEARSHORE  1908   83 84  200/ 16/ 19 1015.9F


STATION/POSITION TIME  TEMP    WIND        PRES    WAVE   SWELL
                       AIR SEA DIR/SP/G            HT/PER HT/PER/DIR
                 (UTC) (F)     (DEG/KT/KT) (MB)    (FT/S) (FT/S/D)
5E ST. MARYS GA  1900      82                N/A     2/ 9
FRYING PAN BUOY  1900   81 81  210/ 17/ 21 1015.8
BUOY 41025       1850   81 80  230/ 19/ 23 1014.0F   8/ 7
CAPE LOOKOUT NC  1900   83     210/ 15/ 18 1014.0F
BUOY 41002       1850   81 81  200/ 14/ 17 1019.6F   4/ 8   2/100/ 8
BUOY 41010       1910   83 84  190/ 12/ 14 1019.3
ST AUGUSTINE FL  1900   80 80  150/ 10/ 10 1017.8F


$$



USA.gov is the U.S. government's official web portal to all federal, state and local government web resources and services.